When you browse on this site, cookies collect data to enhance your experience and personalize the content and advertising you see.
Visit our Privacy Policy to learn more. By continuing to use the site, you agree to this use of cookies and data.
  • In Hungary
  • List of Countries
  • For 7 days
  • Water Temperature
  • Satellite Maps
  • Weather Map
  • News
  • Weather Widgets
  • user-avatar
    Login

    Hourly Weather Totolac

    Today, 16 February, Saturday

    Time Temperature Precipitation Wind Pressure Humidity
    00:00 +14°C° 0 mm 0 mps 576 mmHg 66%
    01:00 +14°C° 0 mm 0 mps 575 mmHg 68%
    02:00 +14°C° 0 mm 0 mps 575 mmHg 69%
    03:00 +13°C° 0 mm 0 mps 575 mmHg 69%
    04:00 +13°C° 0 mm 0 mps 575 mmHg 69%
    05:00 +13°C° 0 mm 0 mps 575 mmHg 69%
    06:00 +14°C° 0 mm 0 mps 575 mmHg 62%
    07:00 +18°C° 0 mm 1 mps 576 mmHg 55%
    08:00 +20°C° 0 mm 1 mps 577 mmHg 48%
    09:00 +22°C° 0 mm 1 mps 578 mmHg 42%
    10:00 +23°C° 0 mm 1 mps 578 mmHg 35%
    11:00 +25°C° 0 mm 1 mps 579 mmHg 29%
    12:00 +26°C° 0 mm 2 mps 579 mmHg 28%
    13:00 +27°C° 0 mm 3 mps 578 mmHg 27%
    14:00 +27°C° 0 mm 3 mps 578 mmHg 27%
    15:00 +26°C° 0 mm 4 mps 577 mmHg 31%
    16:00 +25°C° 0 mm 4 mps 577 mmHg 35%
    17:00 +23°C° 0 mm 5 mps 576 mmHg 39%
    18:00 +21°C° 0 mm 4 mps 576 mmHg 42%
    19:00 +20°C° 0 mm 3 mps 576 mmHg 45%
    20:00 +18°C° 0 mm 2 mps 576 mmHg 48%
    21:00 +18°C° 0 mm 2 mps 575 mmHg 47%
    22:00 +18°C° 0 mm 1 mps 575 mmHg 46%
    23:00 +18°C° 0 mm 1 mps 575 mmHg 45%

    Tomorrow, 17 February, Sunday

    Time Temperature Precipitation Wind Pressure Humidity
    00:00 +16°C° 0 mm 1 mps 575 mmHg 44%
    01:00 +16°C° 0 mm 1 mps 575 mmHg 44%
    02:00 +15°C° 0 mm 1 mps 574 mmHg 43%
    03:00 +15°C° 0 mm 1 mps 574 mmHg 44%
    04:00 +14°C° 0 mm 1 mps 574 mmHg 45%
    05:00 +14°C° 0 mm 1 mps 574 mmHg 45%
    06:00 +15°C° 0 mm 1 mps 575 mmHg 43%
    07:00 +18°C° 0 mm 1 mps 576 mmHg 40%
    08:00 +19°C° 0 mm 1 mps 577 mmHg 38%
    09:00 +20°C° 0 mm 2 mps 578 mmHg 34%
    10:00 +22°C° 0 mm 3 mps 579 mmHg 30%
    11:00 +25°C° 0 mm 3 mps 579 mmHg 26%
    12:00 +26°C° 0 mm 4 mps 579 mmHg 24%
    13:00 +27°C° 0 mm 4 mps 579 mmHg 22%
    14:00 +27°C° 0 mm 4 mps 578 mmHg 20%
    15:00 +26°C° 0 mm 4 mps 578 mmHg 22%
    16:00 +25°C° 0 mm 4 mps 577 mmHg 24%
    17:00 +23°C° 0 mm 4 mps 577 mmHg 26%
    18:00 +21°C° 0 mm 3 mps 577 mmHg 30%
    19:00 +19°C° 0 mm 2 mps 577 mmHg 34%
    20:00 +18°C° 0 mm 1 mps 577 mmHg 38%
    21:00 +18°C° 0 mm 1 mps 577 mmHg 40%
    22:00 +16°C° 0 mm 1 mps 577 mmHg 43%
    23:00 +15°C° 0 mm 1 mps 576 mmHg 45%

    Day after tomorrow, 18 February, Monday

    Time Temperature Precipitation Wind Pressure Humidity
    00:00 +15°C° 0 mm 1 mps 576 mmHg 48%
    01:00 +13°C° 0 mm 0 mps 576 mmHg 50%
    02:00 +13°C° 0 mm 0 mps 575 mmHg 53%
    03:00 +13°C° 0 mm 0 mps 575 mmHg 54%
    04:00 +12°C° 0 mm 0 mps 575 mmHg 55%
    05:00 +12°C° 0 mm 0 mps 575 mmHg 56%
    06:00 +14°C° 0 mm 0 mps 576 mmHg 51%
    07:00 +16°C° 0 mm 1 mps 577 mmHg 46%
    08:00 +19°C° 0 mm 1 mps 579 mmHg 40%
    09:00 +20°C° 0 mm 2 mps 579 mmHg 36%
    10:00 +22°C° 0 mm 3 mps 580 mmHg 32%
    11:00 +25°C° 0 mm 4 mps 581 mmHg 27%
    12:00 +25°C° 0 mm 5 mps 580 mmHg 26%
    13:00 +26°C° 0 mm 5 mps 580 mmHg 25%
    14:00 +26°C° 0 mm 6 mps 579 mmHg 24%
    15:00 +25°C° 0 mm 5 mps 579 mmHg 27%
    16:00 +23°C° 0 mm 5 mps 578 mmHg 29%
    17:00 +21°C° 0 mm 5 mps 577 mmHg 32%
    18:00 +20°C° 0 mm 4 mps 577 mmHg 35%
    19:00 +18°C° 0 mm 2 mps 577 mmHg 39%
    20:00 +18°C° 0 mm 1 mps 577 mmHg 42%
    21:00 +16°C° 0 mm 1 mps 577 mmHg 43%
    22:00 +16°C° 0 mm 1 mps 577 mmHg 45%
    23:00 +15°C° 0 mm 1 mps 577 mmHg 47%

    19 February, Tuesday

    Time Temperature Precipitation Wind Pressure Humidity
    00:00 +15°C° 0 mm 1 mps 576 mmHg 48%
    01:00 +14°C° 0 mm 1 mps 575 mmHg 48%
    02:00 +14°C° 0 mm 1 mps 575 mmHg 49%
    03:00 +13°C° 0 mm 1 mps 575 mmHg 47%
    04:00 +13°C° 0 mm 1 mps 574 mmHg 46%
    05:00 +12°C° 0 mm 1 mps 574 mmHg 44%
    06:00 +14°C° 0 mm 1 mps 575 mmHg 41%
    07:00 +15°C° 0 mm 2 mps 576 mmHg 37%
    08:00 +17°C° 0 mm 2 mps 577 mmHg 34%
    09:00 +19°C° 0 mm 3 mps 578 mmHg 30%
    10:00 +21°C° 0 mm 4 mps 579 mmHg 25%
    11:00 +23°C° 0 mm 5 mps 579 mmHg 21%
    12:00 +23°C° 0 mm 6 mps 579 mmHg 19%
    13:00 +23°C° 0 mm 6 mps 578 mmHg 17%
    14:00 +24°C° 0 mm 6 mps 577 mmHg 15%
    15:00 +23°C° 0 mm 6 mps 577 mmHg 18%
    16:00 +21°C° 0 mm 5 mps 576 mmHg 20%
    17:00 +20°C° 0 mm 5 mps 576 mmHg 22%
    18:00 +19°C° 0 mm 4 mps 575 mmHg 26%
    19:00 +17°C° 0 mm 3 mps 575 mmHg 29%
    20:00 +15°C° 0 mm 2 mps 575 mmHg 33%
    21:00 +15°C° 0 mm 2 mps 575 mmHg 35%
    22:00 +14°C° 0 mm 1 mps 575 mmHg 38%
    23:00 +14°C° 0 mm 1 mps 574 mmHg 40%

    20 February, Wednesday

    Time Temperature Precipitation Wind Pressure Humidity
    00:00 +13°C° 0 mm 1 mps 574 mmHg 43%
    01:00 +13°C° 0 mm 1 mps 573 mmHg 45%
    02:00 +12°C° 0 mm 1 mps 573 mmHg 48%
    03:00 +12°C° 0 mm 1 mps 573 mmHg 49%
    04:00 +11°C° 0 mm 1 mps 572 mmHg 50%
    05:00 +11°C° 0 mm 1 mps 572 mmHg 51%
    06:00 +12°C° 0 mm 1 mps 573 mmHg 47%
    07:00 +14°C° 0 mm 2 mps 574 mmHg 43%
    08:00 +15°C° 0 mm 2 mps 575 mmHg 40%
    09:00 +17°C° 0 mm 3 mps 576 mmHg 34%
    10:00 +20°C° 0 mm 4 mps 577 mmHg 29%
    11:00 +22°C° 0 mm 5 mps 577 mmHg 24%
    12:00 +22°C° 0 mm 5 mps 577 mmHg 22%
    13:00 +23°C° 0 mm 5 mps 576 mmHg 21%
    14:00 +23°C° 0 mm 6 mps 576 mmHg 19%
    15:00 +22°C° 0 mm 6 mps 575 mmHg 20%
    16:00 +21°C° 0 mm 5 mps 575 mmHg 22%
    17:00 +20°C° 0 mm 5 mps 575 mmHg 23%
    18:00 +18°C° 0 mm 4 mps 574 mmHg 26%
    19:00 +16°C° 0 mm 3 mps 574 mmHg 29%
    20:00 +15°C° 0 mm 2 mps 574 mmHg 33%
    21:00 +14°C° 0 mm 2 mps 574 mmHg 34%
    22:00 +14°C° 0 mm 2 mps 574 mmHg 35%
    23:00 +13°C° 0 mm 1 mps 574 mmHg 37%

    21 February, Thursday

    Time Temperature Precipitation Wind Pressure Humidity
    00:00 +13°C° 0 mm 1 mps 573 mmHg 37%
    01:00 +12°C° 0 mm 1 mps 573 mmHg 37%
    02:00 +12°C° 0 mm 1 mps 573 mmHg 38%
    03:00 +11°C° 0 mm 1 mps 572 mmHg 38%
    04:00 +11°C° 0 mm 1 mps 572 mmHg 38%
    05:00 +10°C° 0 mm 1 mps 572 mmHg 38%
    06:00 +12°C° 0 mm 1 mps 574 mmHg 35%
    07:00 +14°C° 0 mm 1 mps 575 mmHg 32%
    08:00 +16°C° 0 mm 1 mps 576 mmHg 29%
    09:00 +18°C° 0 mm 2 mps 577 mmHg 25%
    10:00 +20°C° 0 mm 2 mps 578 mmHg 21%
    11:00 +22°C° 0 mm 3 mps 578 mmHg 17%
    12:00 +24°C° 0 mm 3 mps 578 mmHg 16%
    13:00 +25°C° 0 mm 4 mps 578 mmHg 16%
    14:00 +26°C° 0 mm 4 mps 577 mmHg 15%
    15:00 +23°C° 0 mm 4 mps 577 mmHg 17%
    16:00 +22°C° 0 mm 5 mps 576 mmHg 19%
    17:00 +21°C° 0 mm 5 mps 576 mmHg 22%
    18:00 +19°C° 0 mm 4 mps 576 mmHg 26%
    19:00 +17°C° 0 mm 3 mps 575 mmHg 30%
    20:00 +15°C° 0 mm 2 mps 575 mmHg 33%
    21:00 +15°C° 0 mm 1 mps 575 mmHg 36%
    22:00 +14°C° 0 mm 1 mps 575 mmHg 38%
    23:00 +14°C° 0 mm 1 mps 575 mmHg 40%
    Show more